カタログに戻る

COSMOS 1603

運用中軍事LEO
NORAD 15333·PAYLOAD·🇷🇺 Russia

打ち上げ Sep 28, 1984 から Baikonur Cosmodrome

Loading…

次のパス (今後24時間)

TLE

最新Source: Space-Track

元期: Sep 14, 2026, 07:35 UTC

1 15333U 84106A   26257.31601750 -.00000069  00000-0 -11077-4 0  9996
2 15333  71.0241 221.0767 0017420 108.3421 251.9598 14.14523812165349

AllMySatでCOSMOS 1603をリアルタイム追跡

Download on the App Store